This is the latest recevied weather packets stored in our database for station/object N5KJT. If no packets are shown the sender has not sent any weather packets the latest 10 day(s).
| Time | Temp. | Humidity | Pressure | Rain* | Wind** | Luminosity | Snow |
|---|---|---|---|---|---|---|---|
| 1787788516 | 27.78° C | 36% | 1025.7 hPa | 0 mm | - | 58 W/m² | - |
| 1787788216 | 27.78° C | 37% | 1025.5 hPa | 0 mm | - | 77 W/m² | - |
| 1787787916 | 27.78° C | 40% | 1025.3 hPa | 0 mm | - | 92 W/m² | - |
| 1787787616 | 28.33° C | 38% | 1025.4 hPa | 0 mm | - | 102 W/m² | - |
| 1787787315 | 28.33° C | 40% | 1025.3 hPa | 0 mm | - | 154 W/m² | - |
| 1787787016 | 28.33° C | 44% | 1025.3 hPa | 0 mm | - | 209 W/m² | - |
| 1787786716 | 28.33° C | 40% | 1025.2 hPa | 0 mm | - | 165 W/m² | - |
| 1787786416 | 28.33° C | 40% | 1025.3 hPa | 0 mm | - | 291 W/m² | - |
| 1787786115 | 27.78° C | 41% | 1025.4 hPa | 0 mm | - | 393 W/m² | - |
| 1787785816 | 27.78° C | 41% | 1025.5 hPa | 0 mm | - | 480 W/m² | - |
| 1787785516 | 27.22° C | 42% | 1025.5 hPa | 0 mm | - | 297 W/m² | - |
| 1787785216 | 27.22° C | 44% | 1025.6 hPa | 1.02 mm | - | 272 W/m² | - |
| 1787784916 | 26.67° C | 42% | 1025.6 hPa | 1.02 mm | - | 187 W/m² | - |
| 1787784616 | 26.67° C | 41% | 1025.5 hPa | 1.02 mm | - | 174 W/m² | - |
| 1787784316 | 26.67° C | 46% | 1025.5 hPa | 1.02 mm | - | 187 W/m² | - |
| 1787784016 | 26.67° C | 45% | 1025.6 hPa | 1.02 mm | - | 203 W/m² | - |
| 1787783715 | 26.11° C | 40% | 1025.7 hPa | 1.02 mm | - | 216 W/m² | - |
| 1787783416 | 25.56° C | 53% | 1025.8 hPa | 1.02 mm | - | 220 W/m² | - |
| 1787783116 | 25° C | 56% | 1025.6 hPa | 1.02 mm | - | 218 W/m² | - |
| 1787782815 | 25° C | 54% | 1025.7 hPa | 1.02 mm | - | 196 W/m² | - |
| 1787782515 | 25° C | 49% | 1025.6 hPa | 1.02 mm | - | 170 W/m² | - |
| 1787782216 | 25° C | 50% | 1025.6 hPa | 1.02 mm | - | 140 W/m² | - |
| 1787781915 | 27.22° C | 46% | 1025.8 hPa | 1.02 mm | - | 100 W/m² | - |
| 1787781618 | 29.44° C | 30% | - | 0 mm | - | 84 W/m² | - |
| 1787781340 | 30° C | 30% | - | 0 mm | - | 93 W/m² | - |
* Rain latest hour (hover to see other rain measurements)
** Current wind speed in m/s (hover to see current wind gust speed)